Tracking 25648 objects as of 17-May-2022
HD Live streaming from Space Station
objects crossing your sky now

M2-A

Track M2-A now!
10-day predictions


NORAD ID: 47967
Int'l Code: 2021-023C
Perigee: 548.6 km
Apogee: 560.5 km
Inclination: 45.0 °
Period: 95.6 minutes
Semi major axis: 6925 km
RCS: Unknown
Launch date: March 22, 2021
Source: United States (US)
Launch site: Rocket Lab Launch Complex (RLLC)
aabbcc
Your satellite tracking list
Your tracking list is empty




NASA's NSSDC Master Catalog

Two Line Element Set (TLE):
1 47967U 21023C   22136.84410725  .00003897  00000-0  27670-3 0  9998
2 47967  45.0035  47.8606 0008597 108.3270 251.8541 15.06338742 63276
Source of the keplerian elements: AFSPC